LiveATC.Net - Listen to live air traffic control over the Internet!

NOTICE

Unauthorized use prohibited. See LiveATC.net Terms of Service



ICAO: CYQI  IATA: YQI   Airport: Yarmouth Airport
City: Yarmouth   State/Province: Nova Scotia
Country: Canada   Continent: North America
CYQI METAR Weather: CYQI 110100Z 35014G21KT 15SM OVC038 M06/M13 A3020 RMK SC8 SLP230
CYQI Flight Activity (FlightAware)
CYQI Airport Info   (AirNav) (iFlightPlanner)

CYQI/CZQM CTAF/FIC/Center
Feed Status: UP   Listeners: 0
Listen right in your browser - requires Flash (in browser, requires Flash)
Click here to listen with your own player (launches your MP3 player)
CYQI/CZQM CTAF/FIC/Center Audio Archives
FacilityFrequency
Halifax FIC123.550
Moncton Approach/Departure119.200
Moncton Center (Digby Sector - Moncton)132.200
Moncton Center (Digby Sector)123.900
Moncton Center (TUSKY/BRADD Sector)135.200
Moncton Center (Vitol Sector)128.375
Moncton Center (WHALE /KANNI Sector)132.975
Yarmouth CTAF/UNICOM123.000

ICAO: KPUB  IATA: PUB   Airport: Pueblo Memorial Airport
City: Pueblo   State/Province: Colorado
Country: United States   Continent: North America
KPUB METAR Weather: KPUB 110153Z 28008G16KT 10SM CLR 12/M08 A2971 RMK AO2 SLP065 T01221083
KPUB Flight Activity (FlightAware)
KPUB Airport Info   (AirNav) (iFlightPlanner)

ZDV Pueblo Low
Feed Status: UP   Listeners: 0
Listen right in your browser - requires Flash (in browser, requires Flash)
Click here to listen with your own player (launches your MP3 player)
ZDV Pueblo Low Audio Archives
FacilityFrequency
Denver Center (Pueblo Low Sector)128.375

NOTICE

Unauthorized use prohibited. See LiveATC.net Terms of Service


Find LiveATC Audio Streams


Airport/ARTCC Code

Frequency
(e.g., 124.400, 128.75)
Site-wide search

Browse LiveATC Feeds
LiveATC Coverage Map
Top 50 LiveATC Feeds
Bad Weather Areas

LiveATC FAQ
Offer a LiveATC Feed
Contact LiveATC.net
Press Inquiries

LiveATC on iPhone
LiveATC on Android

Windows Phone
Windows 8/10

LiveATC Mobile
(Mobile browser)

ATC Audio Archives
Interesting Recordings

LiveATC Forums


Home Page
About LiveATC.net
Make a Donation
LiveATC Store

Terms of Use
Privacy Policy

Canadian Air Freqs

AIRMETs/SIGMETs

FAA Airport Status
Nat'l Airspace Status
Arrival Demand Charts


Server Software By:
Icecast.org
Liquidsoap

Please make a donation to help us keep growing!